Regional Weather Roundup
Issued by NWS Upton, NY

Current Version | Previous Version | Graphics & Text | Print | Product List | Glossary Off
Versions: 1 2 3 4 5 6 7 8 9 10 11 12 13 14 15 16 17 18 19 20 21 22 23 24 25 26 27 28 29 30 31 32 33 34 35 36 37 38 39 40 41 42 43 44 45 46 47 48 49 50

511
ASUS41 KOKX 070004
RWROKX

REGIONAL WEATHER ROUNDUP
NATIONAL WEATHER SERVICE NEW YORK NY
700 PM EST SAT FEB 06 2016

NOTE: "FAIR" INDICATES FEW OR NO CLOUDS BELOW 12,000 FEET WITH NO
SIGNIFICANT WEATHER AND/OR OBSTRUCTIONS TO VISIBILITY.

NYZ071-072-176-178-NJZ106-104-070100-
NEW YORK CITY METRO AREA


CITY           SKY/WX    TMP DP  RH WIND       PRES   REMARKS
CENTRAL PARK   PTCLDY    39  18  42 SW7       30.31R WCI  34
LAGUARDIA APRT MOCLDY    39  19  44 SW9       30.29S WCI  33
KENNEDY INTL   MOCLDY    36  23  59 SW9       30.31S WCI  29
NEWARK/LIBERTY MOCLDY    37  23  56 S9        30.30R WCI  30
BRNX BOT. GARD   N/A     39  19  45 W9        30.28F WCI  33
TETERBORO      CLEAR     35  21  56 S5        30.28S WCI  31
$$

NYZ177-179-078>081-070100-
LONG ISLAND NEW YORK

CITY           SKY/WX    TMP DP  RH WIND       PRES   REMARKS
FARMINGDALE    PTCLDY    36  27  69 SW5       30.30S WCI  32
ISLIP          MOCLDY    36  27  69 SW7       30.28S WCI  30
SHIRLEY        PTCLDY    35  26  69 S5        30.31S WCI  31
RIVERHEAD        N/A     34  25  69 W1        30.32F
WESTHAMPTON    MOCLDY    34  25  69 SW5       30.32S WCI  30
EAST HAMPTON   FAIR      33  26  76 SW3       30.30F
MONTAUK POINT    N/A     36  28  73 SW5       30.31F WCI  32
$$

NYZ052-065-067-070100-
HUDSON VALLEY

CITY           SKY/WX    TMP DP  RH WIND       PRES   REMARKS
WHITE PLAINS   CLEAR     34  19  54 CALM      30.26S
NEWBURGH       CLEAR     36  19  51 VRB5      30.24S WCI  32
MONTGOMERY     CLEAR     32  19  58 SW7       30.23S WCI  26
POUGHKEEPSIE   CLEAR     38  17  42 S5        30.25R WCI  34
ALBANY         CLOUDY    38  17  42 S6        30.20S WCI  33
$$

NJZ001-105-106-008-010-013-015-019>022-104-070100-
NEW JERSEY

CITY           SKY/WX    TMP DP  RH WIND       PRES   REMARKS
NEWARK/LIBERTY MOCLDY    37  23  56 S9        30.30R WCI  30
TETERBORO      CLEAR     35  21  56 S5        30.28S WCI  31
CALDWELL       CLEAR     35  20  54 CALM      30.29R
MORRISTOWN     PTCLDY    30  25  80 CALM      30.29R
SOMERVILLE     CLEAR     29  21  72 CALM      30.28R
SUSSEX         CLEAR     32  19  58 SW3       30.25S
ANDOVER          N/A     30  20  66 CALM      30.26S
TRENTON        CLEAR     36  20  52 SW3       30.29S
MILLVILLE      CLEAR     28  25  88 CALM      30.32F
ATLANTIC CITY  CLEAR     33  26  75 S5        30.33R WCI  29
WRIGHTSTOWN    NOT AVBL
TOMS RIVER     CLEAR     30  23  74 CALM      30.32S
BELMAR         CLEAR     36  19  51 S6        30.30S WCI  31
$$

PAZ047>061-062-071-070100-
EASTERN PENNSYLVANIA

CITY           SKY/WX    TMP DP  RH WIND       PRES   REMARKS
PHILADELPHIA   PTCLDY    39  22  50 S9        30.31S WCI  33
ALLENTOWN      CLEAR     35  20  54 SW5       30.27S WCI  31
SCRANTON       CLOUDY    34  19  54 SW6       30.21R WCI  29
$$

CTZ002-004>006-009-010-012-RIZ004-006-007-MAZ004-011-015-070100-
SOUTHERN NEW ENGLAND
 IN CT

CITY           SKY/WX    TMP DP  RH WIND       PRES   REMARKS
BRADLEY INTL   CLEAR     31  22  69 S9        30.26R WCI  23
HARTFORD       CLEAR     33  24  69 S7        30.28S WCI  27
DANBURY        CLEAR     33  18  53 S6        30.27S WCI  28
WTRBRY/OXFORD  PTCLDY    30  18  59 SW5       30.26S WCI  25
BRIDGEPORT     PTCLDY    36  28  73 SW12      30.29S WCI  28
MERIDEN        CLOUDY    28  22  78 CALM      30.28F
NEW HAVEN      PTCLDY    36  27  69 SW7       30.28F WCI  30
CHESTER        FAIR      32  28  86 SW5       30.28F WCI  27
GROTON         MOCLDY    36  28  73 SW12      30.30S WCI  28
WILLIMANTIC    PTCLDY    31  24  75 S3        30.29R

 IN RI

CITY           SKY/WX    TMP DP  RH WIND       PRES   REMARKS
PROVIDENCE     CLOUDY    31  24  75 SW7       30.30S WCI  24
BLOCK ISLAND   CLOUDY    36  28  75 W13       30.29S WCI  27
WESTERLY       CLOUDY    35  26  69 SW6       30.30F WCI  30

 IN MA

CITY           SKY/WX    TMP DP  RH WIND       PRES   REMARKS
BOSTON         PTCLDY    32  25  75 SW15      30.27S WCI  22
WORCESTER      CLEAR     27  21  78 S10       30.21F WCI  17
WESTFIELD      CLEAR     31  21  66 S9        30.24S WCI  23
PROVINCETOWN   CLOUDY    35  27  72 SW20      30.30S WCI  24
NANTUCKET      PTCLDY    37  28  70 SW16      30.32S WCI  28
$$

ANZ330-335-338-340-345-350-353-355-070100-
COASTAL MARINE OBSERVATIONS


STATION/POSITION TIME  SKY/WX   TEMP    WIND        PRES    VSBY  WAVE
                                AIR SEA DIR/SP/G                  HT/PER
                 (UTC)          (F)     (DEG/KT/KT) (MB)    (MI)  (FT/S)
NY HARB ENTRANCE 2250            40 44  210/ 16/ 17 1025.4          3/10
4S FIRE IS       NOT AVBL
20S FIRE ISLAND  2250            39 45  230/ 14/ 16 1026.0          3/10
GREAT SOUTH BAY  NOT AVBL
23SW MTP         2350            40 47  240/ 14/ 17 1025.8          3/ 4
HUDSON CANYON    2250            41 51              1026.6          3/10
KINGS POINT      2300            38 39  240/  8/  9 1025.3
EXECUTION ROCKS  NOT AVBL
CENTRAL LI SOUND 2300            37     220/ 14/ 17   N/A           2/ 4
EASTERN LI SOUND 2300            37 42  230/ 12/ 16   N/A
ROBBINS REEF     2300            39     220/  8/ 12 1025.0
$$


>>>>>>>>>>>>>>>>>>>>>>>>>>>> KEY <<<<<<<<<<<<<<<<<<<<<<<<<<<
>                                                          <
>     SKY/WX - SKY CONDITION/PRESENT WEATHER               <
>     TMP    - TEMPERATURE IN FAHRENHEIT                   <
>     DP     - DEWPOINT IN FAHRENHEIT                      <
>     RH     - RELATIVE HUMIDITY IN PERCENT                <
>     WIND   - DIRECTION AND SPEED IN MPH                  <
>     PRES   - MEAN SEA LEVEL PRESSURE IN INCHES OF HG     <
>     WCI    - WIND CHILL INDEX                            <
>     VSB    - VISIBILITY IN MILES                         <
>     HX     - HEAT INDEX                                  <
>     TC     - TEMPERATURE IN CELSIUS                      <
>     VRB    - VARIABLE WIND DIRECTION                     <
>                                                          <
>>>>>>>>>>>>>>>>>>>>>>>>>>>> KEY <<<<<<<<<<<<<<<<<<<<<<<<<<<






USA.gov is the U.S. government's official web portal to all federal, state and local government web resources and services.